#datetime,building,power
2023-01-07T00:00:00,mfh,48.44
2023-01-07T00:01:00,mfh,48.53
2023-01-07T00:02:00,mfh,48.51
2023-01-07T00:03:00,mfh,48.92
2023-01-07T00:04:00,mfh,49.82
2023-01-07T00:05:00,mfh,49.50
2023-01-07T00:06:00,mfh,50.13
2023-01-07T00:07:00,mfh,49.25
2023-01-07T00:08:00,mfh,48.59
2023-01-07T00:09:00,mfh,48.54
2023-01-07T00:10:00,mfh,48.48
2023-01-07T00:11:00,mfh,48.48
2023-01-07T00:12:00,mfh,48.62
2023-01-07T00:13:00,mfh,48.83
2023-01-07T00:14:00,mfh,49.49
2023-01-07T00:15:00,mfh,50.38
2023-01-07T00:16:00,mfh,49.37
2023-01-07T00:17:00,mfh,49.59
2023-01-07T00:18:00,mfh,49.58
2023-01-07T00:19:00,mfh,49.64
2023-01-07T00:20:00,mfh,48.79
2023-01-07T00:21:00,mfh,48.84
2023-01-07T00:22:00,mfh,49.32
2023-01-07T00:23:00,mfh,48.99
2023-01-07T00:24:00,mfh,50.44
2023-01-07T00:25:00,mfh,49.51
2023-01-07T00:26:00,mfh,49.75
2023-01-07T00:27:00,mfh,49.82
2023-01-07T00:28:00,mfh,49.07
2023-01-07T00:29:00,mfh,49.07
2023-01-07T00:30:00,mfh,48.98
2023-01-07T00:31:00,mfh,48.97
2023-01-07T00:32:00,mfh,49.05
2023-01-07T00:33:00,mfh,49.02
2023-01-07T00:34:00,mfh,49.43
2023-01-07T00:35:00,mfh,49.44
2023-01-07T00:36:00,mfh,49.45
2023-01-07T00:37:00,mfh,49.52
2023-01-07T00:38:00,mfh,50.17
2023-01-07T00:39:00,mfh,49.60
2023-01-07T00:40:00,mfh,48.87
2023-01-07T00:41:00,mfh,48.98
2023-01-07T00:42:00,mfh,48.93
2023-01-07T00:43:00,mfh,48.87
2023-01-07T00:44:00,mfh,49.43
2023-01-07T00:45:00,mfh,49.88
2023-01-07T00:46:00,mfh,49.35
2023-01-07T00:47:00,mfh,50.06
2023-01-07T00:48:00,mfh,48.90
2023-01-07T00:49:00,mfh,48.95
2023-01-07T00:50:00,mfh,48.81
2023-01-07T00:51:00,mfh,49.21
2023-01-07T00:52:00,mfh,48.71
2023-01-07T00:53:00,mfh,49.22
2023-01-07T00:54:00,mfh,49.99
2023-01-07T00:55:00,mfh,50.02
2023-01-07T00:56:00,mfh,50.63
2023-01-07T00:57:00,mfh,52.75
2023-01-07T00:58:00,mfh,52.23
2023-01-07T00:59:00,mfh,51.37
2023-01-07T01:00:00,mfh,50.81
2023-01-07T01:01:00,mfh,50.67
2023-01-07T01:02:00,mfh,50.58
2023-01-07T01:03:00,mfh,50.47
2023-01-07T01:04:00,mfh,50.56
2023-01-07T01:05:00,mfh,51.43
2023-01-07T01:06:00,mfh,51.27
2023-01-07T01:07:00,mfh,51.06
2023-01-07T01:08:00,mfh,51.16
2023-01-07T01:09:00,mfh,51.00
2023-01-07T01:10:00,mfh,50.99
2023-01-07T01:11:00,mfh,51.15
2023-01-07T01:12:00,mfh,50.40
2023-01-07T01:13:00,mfh,50.35
2023-01-07T01:14:00,mfh,48.59
2023-01-07T01:15:00,mfh,48.65
2023-01-07T01:16:00,mfh,49.26
2023-01-07T01:17:00,mfh,50.14
2023-01-07T01:18:00,mfh,49.54
2023-01-07T01:19:00,mfh,49.58
2023-01-07T01:20:00,mfh,48.88
2023-01-07T01:21:00,mfh,48.95
2023-01-07T01:22:00,mfh,48.69
2023-01-07T01:23:00,mfh,48.83
2023-01-07T01:24:00,mfh,48.80
2023-01-07T01:25:00,mfh,49.44
2023-01-07T01:26:00,mfh,49.46
2023-01-07T01:27:00,mfh,49.50
2023-01-07T01:28:00,mfh,50.25
2023-01-07T01:29:00,mfh,49.49
2023-01-07T01:30:00,mfh,49.44
2023-01-07T01:31:00,mfh,48.85
2023-01-07T01:32:00,mfh,48.74
2023-01-07T01:33:00,mfh,48.82
2023-01-07T01:34:00,mfh,48.53
2023-01-07T01:35:00,mfh,49.12
2023-01-07T01:36:00,mfh,49.14
2023-01-07T01:37:00,mfh,49.13
2023-01-07T01:38:00,mfh,49.25
2023-01-07T01:39:00,mfh,49.31
2023-01-07T01:40:00,mfh,48.64
2023-01-07T01:41:00,mfh,48.68
2023-01-07T01:42:00,mfh,48.84
2023-01-07T01:43:00,mfh,48.79
2023-01-07T01:44:00,mfh,48.70
2023-01-07T01:45:00,mfh,49.32
2023-01-07T01:46:00,mfh,49.29
2023-01-07T01:47:00,mfh,49.25
2023-01-07T01:48:00,mfh,49.21
2023-01-07T01:49:00,mfh,49.20
2023-01-07T01:50:00,mfh,49.25
2023-01-07T01:51:00,mfh,49.31
2023-01-07T01:52:00,mfh,48.78
2023-01-07T01:53:00,mfh,48.74
2023-01-07T01:54:00,mfh,48.72
2023-01-07T01:55:00,mfh,49.29
2023-01-07T01:56:00,mfh,51.38
2023-01-07T01:57:00,mfh,50.98
2023-01-07T01:58:00,mfh,52.02
2023-01-07T01:59:00,mfh,51.46
2023-01-07T02:00:00,mfh,50.59
2023-01-07T02:01:00,mfh,48.95
2023-01-07T02:02:00,mfh,49.10
2023-01-07T02:03:00,mfh,49.15
2023-01-07T02:04:00,mfh,49.13
2023-01-07T02:05:00,mfh,49.66
2023-01-07T02:06:00,mfh,49.74
2023-01-07T02:07:00,mfh,49.75
2023-01-07T02:08:00,mfh,49.65
2023-01-07T02:09:00,mfh,49.51
2023-01-07T02:10:00,mfh,49.50
2023-01-07T02:11:00,mfh,49.36
2023-01-07T02:12:00,mfh,48.77
2023-01-07T02:13:00,mfh,48.77
2023-01-07T02:14:00,mfh,48.77
2023-01-07T02:15:00,mfh,49.63
2023-01-07T02:16:00,mfh,49.62
2023-01-07T02:17:00,mfh,49.75
2023-01-07T02:18:00,mfh,49.78
2023-01-07T02:19:00,mfh,49.77
2023-01-07T02:20:00,mfh,49.05
2023-01-07T02:21:00,mfh,49.01
2023-01-07T02:22:00,mfh,48.86
2023-01-07T02:23:00,mfh,48.86
2023-01-07T02:24:00,mfh,48.86
2023-01-07T02:25:00,mfh,49.33
2023-01-07T02:26:00,mfh,49.44
2023-01-07T02:27:00,mfh,49.48
2023-01-07T02:28:00,mfh,49.39
2023-01-07T02:29:00,mfh,50.14
2023-01-07T02:30:00,mfh,49.48
2023-01-07T02:31:00,mfh,48.81
2023-01-07T02:32:00,mfh,48.87
2023-01-07T02:33:00,mfh,48.92
2023-01-07T02:34:00,mfh,49.43
2023-01-07T02:35:00,mfh,49.60
2023-01-07T02:36:00,mfh,49.59
2023-01-07T02:37:00,mfh,49.65
2023-01-07T02:38:00,mfh,49.70
2023-01-07T02:39:00,mfh,49.37
2023-01-07T02:40:00,mfh,49.03
2023-01-07T02:41:00,mfh,48.97
2023-01-07T02:42:00,mfh,50.84
2023-01-07T02:43:00,mfh,50.84
2023-01-07T02:44:00,mfh,51.28
2023-01-07T02:45:00,mfh,52.19
2023-01-07T02:46:00,mfh,51.26
2023-01-07T02:47:00,mfh,51.44
2023-01-07T02:48:00,mfh,51.69
2023-01-07T02:49:00,mfh,52.12
2023-01-07T02:50:00,mfh,51.58
2023-01-07T02:51:00,mfh,50.90
2023-01-07T02:52:00,mfh,51.02
2023-01-07T02:53:00,mfh,50.92
2023-01-07T02:54:00,mfh,51.47
2023-01-07T02:55:00,mfh,51.13
2023-01-07T02:56:00,mfh,51.06
2023-01-07T02:57:00,mfh,51.05
2023-01-07T02:58:00,mfh,51.02
2023-01-07T02:59:00,mfh,48.43
2023-01-07T03:00:00,mfh,48.70
2023-01-07T03:01:00,mfh,48.41
2023-01-07T03:02:00,mfh,48.53
2023-01-07T03:03:00,mfh,48.53
2023-01-07T03:04:00,mfh,49.20
2023-01-07T03:05:00,mfh,49.22
2023-01-07T03:06:00,mfh,49.31
2023-01-07T03:07:00,mfh,49.29
2023-01-07T03:08:00,mfh,49.42
2023-01-07T03:09:00,mfh,49.63
2023-01-07T03:10:00,mfh,49.10
2023-01-07T03:11:00,mfh,48.90
2023-01-07T03:12:00,mfh,48.83
2023-01-07T03:13:00,mfh,48.89
2023-01-07T03:14:00,mfh,49.45
2023-01-07T03:15:00,mfh,49.46
2023-01-07T03:16:00,mfh,49.41
2023-01-07T03:17:00,mfh,49.47
2023-01-07T03:18:00,mfh,48.82
2023-01-07T03:19:00,mfh,48.97
2023-01-07T03:20:00,mfh,48.97
2023-01-07T03:21:00,mfh,48.92
2023-01-07T03:22:00,mfh,48.87
2023-01-07T03:23:00,mfh,48.96
2023-01-07T03:24:00,mfh,49.52
2023-01-07T03:25:00,mfh,49.55
2023-01-07T03:26:00,mfh,49.61
2023-01-07T03:27:00,mfh,49.61
2023-01-07T03:28:00,mfh,49.57
2023-01-07T03:29:00,mfh,49.56
2023-01-07T03:30:00,mfh,48.91
2023-01-07T03:31:00,mfh,49.07
2023-01-07T03:32:00,mfh,49.28
2023-01-07T03:33:00,mfh,49.14
2023-01-07T03:34:00,mfh,49.68
2023-01-07T03:35:00,mfh,49.68
2023-01-07T03:36:00,mfh,49.74
2023-01-07T03:37:00,mfh,49.76
2023-01-07T03:38:00,mfh,49.11
2023-01-07T03:39:00,mfh,49.09
2023-01-07T03:40:00,mfh,48.80
2023-01-07T03:41:00,mfh,49.16
2023-01-07T03:42:00,mfh,49.71
2023-01-07T03:43:00,mfh,49.81
2023-01-07T03:44:00,mfh,50.71
2023-01-07T03:45:00,mfh,50.24
2023-01-07T03:46:00,mfh,50.15
2023-01-07T03:47:00,mfh,49.37
2023-01-07T03:48:00,mfh,49.39
2023-01-07T03:49:00,mfh,49.44
2023-01-07T03:50:00,mfh,48.88
2023-01-07T03:51:00,mfh,48.82
2023-01-07T03:52:00,mfh,48.91
2023-01-07T03:53:00,mfh,49.48
2023-01-07T03:54:00,mfh,49.49
2023-01-07T03:55:00,mfh,49.56
2023-01-07T03:56:00,mfh,49.55
2023-01-07T03:57:00,mfh,49.47
2023-01-07T03:58:00,mfh,48.95
2023-01-07T03:59:00,mfh,48.94
2023-01-07T04:00:00,mfh,48.94
2023-01-07T04:01:00,mfh,48.87
2023-01-07T04:02:00,mfh,48.88
2023-01-07T04:03:00,mfh,48.89
2023-01-07T04:04:00,mfh,49.45
2023-01-07T04:05:00,mfh,49.43
2023-01-07T04:06:00,mfh,49.45
2023-01-07T04:07:00,mfh,49.60
2023-01-07T04:08:00,mfh,49.59
2023-01-07T04:09:00,mfh,49.64
2023-01-07T04:10:00,mfh,49.06
2023-01-07T04:11:00,mfh,49.79
2023-01-07T04:12:00,mfh,48.97
2023-01-07T04:13:00,mfh,49.75
2023-01-07T04:14:00,mfh,49.79
2023-01-07T04:15:00,mfh,49.66
2023-01-07T04:16:00,mfh,49.86
2023-01-07T04:17:00,mfh,49.81
2023-01-07T04:18:00,mfh,49.05
2023-01-07T04:19:00,mfh,51.55
2023-01-07T04:20:00,mfh,50.90
2023-01-07T04:21:00,mfh,50.88
2023-01-07T04:22:00,mfh,50.89
2023-01-07T04:23:00,mfh,52.25
2023-01-07T04:24:00,mfh,51.22
2023-01-07T04:25:00,mfh,51.38
2023-01-07T04:26:00,mfh,51.43
2023-01-07T04:27:00,mfh,51.46
2023-01-07T04:28:00,mfh,51.47
2023-01-07T04:29:00,mfh,51.22
2023-01-07T04:30:00,mfh,50.85
2023-01-07T04:31:00,mfh,51.33
2023-01-07T04:32:00,mfh,50.94
2023-01-07T04:33:00,mfh,51.50
2023-01-07T04:34:00,mfh,51.47
2023-01-07T04:35:00,mfh,51.47
2023-01-07T04:36:00,mfh,51.45
2023-01-07T04:37:00,mfh,50.09
2023-01-07T04:38:00,mfh,48.96
2023-01-07T04:39:00,mfh,48.99
2023-01-07T04:40:00,mfh,50.44
2023-01-07T04:41:00,mfh,50.49
2023-01-07T04:42:00,mfh,50.53
2023-01-07T04:43:00,mfh,51.44
2023-01-07T04:44:00,mfh,51.52
2023-01-07T04:45:00,mfh,49.89
2023-01-07T04:46:00,mfh,49.79
2023-01-07T04:47:00,mfh,49.83
2023-01-07T04:48:00,mfh,49.95
2023-01-07T04:49:00,mfh,49.51
2023-01-07T04:50:00,mfh,49.07
2023-01-07T04:51:00,mfh,48.96
2023-01-07T04:52:00,mfh,48.67
2023-01-07T04:53:00,mfh,49.38
2023-01-07T04:54:00,mfh,49.40
2023-01-07T04:55:00,mfh,49.55
2023-01-07T04:56:00,mfh,49.31
2023-01-07T04:57:00,mfh,48.65
2023-01-07T04:58:00,mfh,48.66
2023-01-07T04:59:00,mfh,47.69
2023-01-07T05:00:00,mfh,47.90
2023-01-07T05:01:00,mfh,69.20
2023-01-07T05:02:00,mfh,69.68
2023-01-07T05:03:00,mfh,70.63
2023-01-07T05:04:00,mfh,70.34
2023-01-07T05:05:00,mfh,70.42
2023-01-07T05:06:00,mfh,70.50
2023-01-07T05:07:00,mfh,69.59
2023-01-07T05:08:00,mfh,69.22
2023-01-07T05:09:00,mfh,68.09
2023-01-07T05:10:00,mfh,68.03
2023-01-07T05:11:00,mfh,67.06
2023-01-07T05:12:00,mfh,67.10
2023-01-07T05:13:00,mfh,68.06
2023-01-07T05:14:00,mfh,68.94
2023-01-07T05:15:00,mfh,68.58
2023-01-07T05:16:00,mfh,68.69
2023-01-07T05:17:00,mfh,67.81
2023-01-07T05:18:00,mfh,68.05
2023-01-07T05:19:00,mfh,67.90
2023-01-07T05:20:00,mfh,67.80
2023-01-07T05:21:00,mfh,67.78
2023-01-07T05:22:00,mfh,67.76
2023-01-07T05:23:00,mfh,67.76
2023-01-07T05:24:00,mfh,67.99
2023-01-07T05:25:00,mfh,67.91
2023-01-07T05:26:00,mfh,67.84
2023-01-07T05:27:00,mfh,67.93
2023-01-07T05:28:00,mfh,67.83
2023-01-07T05:29:00,mfh,67.26
2023-01-07T05:30:00,mfh,67.27
2023-01-07T05:31:00,mfh,67.02
2023-01-07T05:32:00,mfh,67.05
2023-01-07T05:33:00,mfh,67.69
2023-01-07T05:34:00,mfh,67.84
2023-01-07T05:35:00,mfh,67.96
2023-01-07T05:36:00,mfh,67.78
2023-01-07T05:37:00,mfh,67.19
2023-01-07T05:38:00,mfh,67.20
2023-01-07T05:39:00,mfh,67.77
2023-01-07T05:40:00,mfh,67.68
2023-01-07T05:41:00,mfh,66.98
2023-01-07T05:42:00,mfh,67.16
2023-01-07T05:43:00,mfh,67.54
2023-01-07T05:44:00,mfh,67.30
2023-01-07T05:45:00,mfh,67.28
2023-01-07T05:46:00,mfh,67.36
2023-01-07T05:47:00,mfh,67.36
2023-01-07T05:48:00,mfh,67.40
2023-01-07T05:49:00,mfh,66.95
2023-01-07T05:50:00,mfh,67.11
2023-01-07T05:51:00,mfh,67.49
2023-01-07T05:52:00,mfh,67.03
2023-01-07T05:53:00,mfh,67.57
2023-01-07T05:54:00,mfh,67.51
2023-01-07T05:55:00,mfh,67.65
2023-01-07T05:56:00,mfh,67.73
2023-01-07T05:57:00,mfh,66.70
2023-01-07T05:58:00,mfh,66.72
2023-01-07T05:59:00,mfh,66.44
2023-01-07T06:00:00,mfh,66.32
2023-01-07T06:01:00,mfh,68.17
2023-01-07T06:02:00,mfh,68.21
2023-01-07T06:03:00,mfh,68.79
2023-01-07T06:04:00,mfh,68.83
2023-01-07T06:05:00,mfh,69.15
2023-01-07T06:06:00,mfh,69.68
2023-01-07T06:07:00,mfh,69.26
2023-01-07T06:08:00,mfh,69.25
2023-01-07T06:09:00,mfh,68.34
2023-01-07T06:10:00,mfh,68.42
2023-01-07T06:11:00,mfh,68.50
2023-01-07T06:12:00,mfh,69.23
2023-01-07T06:13:00,mfh,69.00
2023-01-07T06:14:00,mfh,69.01
2023-01-07T06:15:00,mfh,68.69
2023-01-07T06:16:00,mfh,68.69
2023-01-07T06:17:00,mfh,67.91
2023-01-07T06:18:00,mfh,65.97
2023-01-07T06:19:00,mfh,66.08
2023-01-07T06:20:00,mfh,66.04
2023-01-07T06:21:00,mfh,65.98
2023-01-07T06:22:00,mfh,66.58
2023-01-07T06:23:00,mfh,66.56
2023-01-07T06:24:00,mfh,67.93
2023-01-07T06:25:00,mfh,67.95
2023-01-07T06:26:00,mfh,67.38
2023-01-07T06:27:00,mfh,67.32
2023-01-07T06:28:00,mfh,67.46
2023-01-07T06:29:00,mfh,65.92
2023-01-07T06:30:00,mfh,66.00
2023-01-07T06:31:00,mfh,65.99
2023-01-07T06:32:00,mfh,67.98
2023-01-07T06:33:00,mfh,66.67
2023-01-07T06:34:00,mfh,67.48
2023-01-07T06:35:00,mfh,67.00
2023-01-07T06:36:00,mfh,66.77
2023-01-07T06:37:00,mfh,66.01
2023-01-07T06:38:00,mfh,66.22
2023-01-07T06:39:00,mfh,66.36
2023-01-07T06:40:00,mfh,66.34
2023-01-07T06:41:00,mfh,66.11
2023-01-07T06:42:00,mfh,66.74
2023-01-07T06:43:00,mfh,66.75
2023-01-07T06:44:00,mfh,66.77
2023-01-07T06:45:00,mfh,67.00
2023-01-07T06:46:00,mfh,66.66
2023-01-07T06:47:00,mfh,66.49
2023-01-07T06:48:00,mfh,65.88
2023-01-07T06:49:00,mfh,65.97
2023-01-07T06:50:00,mfh,65.81
2023-01-07T06:51:00,mfh,65.95
2023-01-07T06:52:00,mfh,66.72
2023-01-07T06:53:00,mfh,66.45
2023-01-07T06:54:00,mfh,66.59
2023-01-07T06:55:00,mfh,66.74
2023-01-07T06:56:00,mfh,66.14
2023-01-07T06:57:00,mfh,66.53
2023-01-07T06:58:00,mfh,66.45
2023-01-07T06:59:00,mfh,66.25
2023-01-07T07:00:00,mfh,66.24
2023-01-07T07:01:00,mfh,66.60
2023-01-07T07:02:00,mfh,67.13
2023-01-07T07:03:00,mfh,67.00
2023-01-07T07:04:00,mfh,67.02
2023-01-07T07:05:00,mfh,67.06
2023-01-07T07:06:00,mfh,67.04
2023-01-07T07:07:00,mfh,67.28
2023-01-07T07:08:00,mfh,66.42
2023-01-07T07:09:00,mfh,66.34
2023-01-07T07:10:00,mfh,66.39
2023-01-07T07:11:00,mfh,66.22
2023-01-07T07:12:00,mfh,66.71
2023-01-07T07:13:00,mfh,66.76
2023-01-07T07:14:00,mfh,66.76
2023-01-07T07:15:00,mfh,66.79
2023-01-07T07:16:00,mfh,66.09
2023-01-07T07:17:00,mfh,66.67
2023-01-07T07:18:00,mfh,66.72
2023-01-07T07:19:00,mfh,66.19
2023-01-07T07:20:00,mfh,65.67
2023-01-07T07:21:00,mfh,66.52
2023-01-07T07:22:00,mfh,66.44
2023-01-07T07:23:00,mfh,66.34
2023-01-07T07:24:00,mfh,66.36
2023-01-07T07:25:00,mfh,66.33
2023-01-07T07:26:00,mfh,66.52
2023-01-07T07:27:00,mfh,66.50
2023-01-07T07:28:00,mfh,66.03
2023-01-07T07:29:00,mfh,67.80
2023-01-07T07:30:00,mfh,67.37
2023-01-07T07:31:00,mfh,67.45
2023-01-07T07:32:00,mfh,68.62
2023-01-07T07:33:00,mfh,68.49
2023-01-07T07:34:00,mfh,66.42
2023-01-07T07:35:00,mfh,66.57
2023-01-07T07:36:00,mfh,65.86
2023-01-07T07:37:00,mfh,65.97
2023-01-07T07:38:00,mfh,65.86
2023-01-07T07:39:00,mfh,65.83
2023-01-07T07:40:00,mfh,66.02
2023-01-07T07:41:00,mfh,66.03
2023-01-07T07:42:00,mfh,66.58
2023-01-07T07:43:00,mfh,66.55
2023-01-07T07:44:00,mfh,66.40
2023-01-07T07:45:00,mfh,66.48
2023-01-07T07:46:00,mfh,66.51
2023-01-07T07:47:00,mfh,66.43
2023-01-07T07:48:00,mfh,65.71
2023-01-07T07:49:00,mfh,65.83
2023-01-07T07:50:00,mfh,65.42
2023-01-07T07:51:00,mfh,65.86
2023-01-07T07:52:00,mfh,65.95
2023-01-07T07:53:00,mfh,65.97
2023-01-07T07:54:00,mfh,67.94
2023-01-07T07:55:00,mfh,67.73
2023-01-07T07:56:00,mfh,67.07
2023-01-07T07:57:00,mfh,66.86
2023-01-07T07:58:00,mfh,67.93
2023-01-07T07:59:00,mfh,67.91
2023-01-07T08:00:00,mfh,67.81
2023-01-07T08:01:00,mfh,68.30
2023-01-07T08:02:00,mfh,68.25
2023-01-07T08:03:00,mfh,68.41
2023-01-07T08:04:00,mfh,68.51
2023-01-07T08:05:00,mfh,68.04
2023-01-07T08:06:00,mfh,67.84
2023-01-07T08:07:00,mfh,67.16
2023-01-07T08:08:00,mfh,67.16
2023-01-07T08:09:00,mfh,68.68
2023-01-07T08:10:00,mfh,67.84
2023-01-07T08:11:00,mfh,68.52
2023-01-07T08:12:00,mfh,66.41
2023-01-07T08:13:00,mfh,66.42
2023-01-07T08:14:00,mfh,66.77
2023-01-07T08:15:00,mfh,65.77
2023-01-07T08:16:00,mfh,65.97
2023-01-07T08:17:00,mfh,66.42
2023-01-07T08:18:00,mfh,65.91
2023-01-07T08:19:00,mfh,66.18
2023-01-07T08:20:00,mfh,66.48
2023-01-07T08:21:00,mfh,66.65
2023-01-07T08:22:00,mfh,66.58
2023-01-07T08:23:00,mfh,66.50
2023-01-07T08:24:00,mfh,66.76
2023-01-07T08:25:00,mfh,66.61
2023-01-07T08:26:00,mfh,66.74
2023-01-07T08:27:00,mfh,65.99
2023-01-07T08:28:00,mfh,65.94
2023-01-07T08:29:00,mfh,65.98
2023-01-07T08:30:00,mfh,66.56
2023-01-07T08:31:00,mfh,71.13
2023-01-07T08:32:00,mfh,70.94
2023-01-07T08:33:00,mfh,71.35
2023-01-07T08:34:00,mfh,71.41
2023-01-07T08:35:00,mfh,72.07
2023-01-07T08:36:00,mfh,72.32
2023-01-07T08:37:00,mfh,71.25
2023-01-07T08:38:00,mfh,71.22
2023-01-07T08:39:00,mfh,71.12
2023-01-07T08:40:00,mfh,70.30
2023-01-07T08:41:00,mfh,71.94
2023-01-07T08:42:00,mfh,71.04
2023-01-07T08:43:00,mfh,71.77
2023-01-07T08:44:00,mfh,72.00
2023-01-07T08:45:00,mfh,72.23
2023-01-07T08:46:00,mfh,71.46
2023-01-07T08:47:00,mfh,71.41
2023-01-07T08:48:00,mfh,71.80
2023-01-07T08:49:00,mfh,71.91
2023-01-07T08:50:00,mfh,71.71
2023-01-07T08:51:00,mfh,71.10
2023-01-07T08:52:00,mfh,71.66
2023-01-07T08:53:00,mfh,71.81
2023-01-07T08:54:00,mfh,72.35
2023-01-07T08:55:00,mfh,71.82
2023-01-07T08:56:00,mfh,71.87
2023-01-07T08:57:00,mfh,71.83
2023-01-07T08:58:00,mfh,71.56
2023-01-07T08:59:00,mfh,71.62
2023-01-07T09:00:00,mfh,71.59
2023-01-07T09:01:00,mfh,82.25
2023-01-07T09:02:00,mfh,82.69
2023-01-07T09:03:00,mfh,82.49
2023-01-07T09:04:00,mfh,86.48
2023-01-07T09:05:00,mfh,86.80
2023-01-07T09:06:00,mfh,86.97
2023-01-07T09:07:00,mfh,86.70
2023-01-07T09:08:00,mfh,88.70
2023-01-07T09:09:00,mfh,88.83
2023-01-07T09:10:00,mfh,88.91
2023-01-07T09:11:00,mfh,88.90
2023-01-07T09:12:00,mfh,88.70
2023-01-07T09:13:00,mfh,88.97
2023-01-07T09:14:00,mfh,89.09
2023-01-07T09:15:00,mfh,89.03
2023-01-07T09:16:00,mfh,89.10
2023-01-07T09:17:00,mfh,86.92
2023-01-07T09:18:00,mfh,86.81
2023-01-07T09:19:00,mfh,86.81
2023-01-07T09:20:00,mfh,86.95
2023-01-07T09:21:00,mfh,85.83
2023-01-07T09:22:00,mfh,85.64
2023-01-07T09:23:00,mfh,85.71
2023-01-07T09:24:00,mfh,85.72
2023-01-07T09:25:00,mfh,85.66
2023-01-07T09:26:00,mfh,85.47
2023-01-07T09:27:00,mfh,85.36
2023-01-07T09:28:00,mfh,85.34
2023-01-07T09:29:00,mfh,85.43
2023-01-07T09:30:00,mfh,85.82
2023-01-07T09:31:00,mfh,87.26
2023-01-07T09:32:00,mfh,87.38
2023-01-07T09:33:00,mfh,87.40
2023-01-07T09:34:00,mfh,87.29
2023-01-07T09:35:00,mfh,87.33
2023-01-07T09:36:00,mfh,87.26
2023-01-07T09:37:00,mfh,87.04
2023-01-07T09:38:00,mfh,87.08
2023-01-07T09:39:00,mfh,87.23
2023-01-07T09:40:00,mfh,87.09
2023-01-07T09:41:00,mfh,87.19
2023-01-07T09:42:00,mfh,87.23
2023-01-07T09:43:00,mfh,87.15
2023-01-07T09:44:00,mfh,87.27
2023-01-07T09:45:00,mfh,87.02
2023-01-07T09:46:00,mfh,87.18
2023-01-07T09:47:00,mfh,87.23
2023-01-07T09:48:00,mfh,87.80
2023-01-07T09:49:00,mfh,87.89
2023-01-07T09:50:00,mfh,88.15
2023-01-07T09:51:00,mfh,88.48
2023-01-07T09:52:00,mfh,88.13
2023-01-07T09:53:00,mfh,88.14
2023-01-07T09:54:00,mfh,88.06
2023-01-07T09:55:00,mfh,87.95
2023-01-07T09:56:00,mfh,87.98
2023-01-07T09:57:00,mfh,86.66
2023-01-07T09:58:00,mfh,86.67
2023-01-07T09:59:00,mfh,86.76
2023-01-07T10:00:00,mfh,88.32
2023-01-07T10:01:00,mfh,88.27
2023-01-07T10:02:00,mfh,88.26
2023-01-07T10:03:00,mfh,88.05
2023-01-07T10:04:00,mfh,87.99
2023-01-07T10:05:00,mfh,87.96
2023-01-07T10:06:00,mfh,87.83
2023-01-07T10:07:00,mfh,88.06
2023-01-07T10:08:00,mfh,88.08
2023-01-07T10:09:00,mfh,88.17
2023-01-07T10:10:00,mfh,87.93
2023-01-07T10:11:00,mfh,86.58
2023-01-07T10:12:00,mfh,86.70
2023-01-07T10:13:00,mfh,86.99
2023-01-07T10:14:00,mfh,86.95
2023-01-07T10:15:00,mfh,84.70
2023-01-07T10:16:00,mfh,83.48
2023-01-07T10:17:00,mfh,83.54
2023-01-07T10:18:00,mfh,83.42
2023-01-07T10:19:00,mfh,83.89
2023-01-07T10:20:00,mfh,87.30
2023-01-07T10:21:00,mfh,88.36
2023-01-07T10:22:00,mfh,88.36
2023-01-07T10:23:00,mfh,88.16
2023-01-07T10:24:00,mfh,88.09
2023-01-07T10:25:00,mfh,88.02
2023-01-07T10:26:00,mfh,88.19
2023-01-07T10:27:00,mfh,88.19
2023-01-07T10:28:00,mfh,87.91
2023-01-07T10:29:00,mfh,88.17
2023-01-07T10:30:00,mfh,87.75
2023-01-07T10:31:00,mfh,87.60
2023-01-07T10:32:00,mfh,87.81
2023-01-07T10:33:00,mfh,87.87
2023-01-07T10:34:00,mfh,87.88
2023-01-07T10:35:00,mfh,87.88
2023-01-07T10:36:00,mfh,87.73
2023-01-07T10:37:00,mfh,87.87
2023-01-07T10:38:00,mfh,86.47
2023-01-07T10:39:00,mfh,86.49
2023-01-07T10:40:00,mfh,86.30
2023-01-07T10:41:00,mfh,86.70
2023-01-07T10:42:00,mfh,86.82
2023-01-07T10:43:00,mfh,86.59
2023-01-07T10:44:00,mfh,86.72
2023-01-07T10:45:00,mfh,86.74
2023-01-07T10:46:00,mfh,83.61
2023-01-07T10:47:00,mfh,83.60
2023-01-07T10:48:00,mfh,83.82
2023-01-07T10:49:00,mfh,83.68
2023-01-07T10:50:00,mfh,83.84
2023-01-07T10:51:00,mfh,83.97
2023-01-07T10:52:00,mfh,84.22
2023-01-07T10:53:00,mfh,84.17
2023-01-07T10:54:00,mfh,83.95
2023-01-07T10:55:00,mfh,83.83
2023-01-07T10:56:00,mfh,88.25
2023-01-07T10:57:00,mfh,88.61
2023-01-07T10:58:00,mfh,90.51
2023-01-07T10:59:00,mfh,90.37
2023-01-07T11:00:00,mfh,90.27
2023-01-07T11:01:00,mfh,90.12
2023-01-07T11:02:00,mfh,89.84
2023-01-07T11:03:00,mfh,89.86
2023-01-07T11:04:00,mfh,89.83
2023-01-07T11:05:00,mfh,89.89
2023-01-07T11:06:00,mfh,89.84
2023-01-07T11:07:00,mfh,89.73
2023-01-07T11:08:00,mfh,89.78
2023-01-07T11:09:00,mfh,89.64
2023-01-07T11:10:00,mfh,89.72
2023-01-07T11:11:00,mfh,89.57
2023-01-07T11:12:00,mfh,89.54
2023-01-07T11:13:00,mfh,89.50
2023-01-07T11:14:00,mfh,89.45
2023-01-07T11:15:00,mfh,89.50
2023-01-07T11:16:00,mfh,89.37
2023-01-07T11:17:00,mfh,89.50
2023-01-07T11:18:00,mfh,89.52
2023-01-07T11:19:00,mfh,89.54
2023-01-07T11:20:00,mfh,89.54
2023-01-07T11:21:00,mfh,89.56
2023-01-07T11:22:00,mfh,89.42
2023-01-07T11:23:00,mfh,90.24
2023-01-07T11:24:00,mfh,89.89
2023-01-07T11:25:00,mfh,89.94
2023-01-07T11:26:00,mfh,89.78
2023-01-07T11:27:00,mfh,89.89
2023-01-07T11:28:00,mfh,89.77
2023-01-07T11:29:00,mfh,89.83
2023-01-07T11:30:00,mfh,89.73
2023-01-07T11:31:00,mfh,89.76
2023-01-07T11:32:00,mfh,89.70
2023-01-07T11:33:00,mfh,89.65
2023-01-07T11:34:00,mfh,89.76
2023-01-07T11:35:00,mfh,89.32
2023-01-07T11:36:00,mfh,89.42
2023-01-07T11:37:00,mfh,89.37
2023-01-07T11:38:00,mfh,89.33
2023-01-07T11:39:00,mfh,89.22
2023-01-07T11:40:00,mfh,89.08
2023-01-07T11:41:00,mfh,89.15
2023-01-07T11:42:00,mfh,89.12
2023-01-07T11:43:00,mfh,89.16
2023-01-07T11:44:00,mfh,89.15
2023-01-07T11:45:00,mfh,89.06
2023-01-07T11:46:00,mfh,89.11
2023-01-07T11:47:00,mfh,89.14
2023-01-07T11:48:00,mfh,89.30
2023-01-07T11:49:00,mfh,89.45
2023-01-07T11:50:00,mfh,89.27
2023-01-07T11:51:00,mfh,89.22
2023-01-07T11:52:00,mfh,89.47
2023-01-07T11:53:00,mfh,89.32
2023-01-07T11:54:00,mfh,89.35
2023-01-07T11:55:00,mfh,91.20
2023-01-07T11:56:00,mfh,91.06
2023-01-07T11:57:00,mfh,90.90
2023-01-07T11:58:00,mfh,90.91
2023-01-07T11:59:00,mfh,91.02
2023-01-07T12:00:00,mfh,90.88
2023-01-07T12:01:00,mfh,90.95
2023-01-07T12:02:00,mfh,90.93
2023-01-07T12:03:00,mfh,90.96
2023-01-07T12:04:00,mfh,91.02
2023-01-07T12:05:00,mfh,91.00
2023-01-07T12:06:00,mfh,90.89
2023-01-07T12:07:00,mfh,91.34
2023-01-07T12:08:00,mfh,91.33
2023-01-07T12:09:00,mfh,91.21
2023-01-07T12:10:00,mfh,90.94
2023-01-07T12:11:00,mfh,90.94
2023-01-07T12:12:00,mfh,90.75
2023-01-07T12:13:00,mfh,90.73
2023-01-07T12:14:00,mfh,90.87
2023-01-07T12:15:00,mfh,90.77
2023-01-07T12:16:00,mfh,90.95
2023-01-07T12:17:00,mfh,90.74
2023-01-07T12:18:00,mfh,90.76
2023-01-07T12:19:00,mfh,90.92
2023-01-07T12:20:00,mfh,90.94
2023-01-07T12:21:00,mfh,90.67
2023-01-07T12:22:00,mfh,90.51
2023-01-07T12:23:00,mfh,90.72
2023-01-07T12:24:00,mfh,90.53
2023-01-07T12:25:00,mfh,90.36
2023-01-07T12:26:00,mfh,90.51
2023-01-07T12:27:00,mfh,90.66
2023-01-07T12:28:00,mfh,90.50
2023-01-07T12:29:00,mfh,90.49
2023-01-07T12:30:00,mfh,90.61
2023-01-07T12:31:00,mfh,90.62
2023-01-07T12:32:00,mfh,90.73
2023-01-07T12:33:00,mfh,90.66
2023-01-07T12:34:00,mfh,90.81
2023-01-07T12:35:00,mfh,91.04
2023-01-07T12:36:00,mfh,91.00
2023-01-07T12:37:00,mfh,90.99
2023-01-07T12:38:00,mfh,90.78
2023-01-07T12:39:00,mfh,90.68
2023-01-07T12:40:00,mfh,91.02
2023-01-07T12:41:00,mfh,90.92
2023-01-07T12:42:00,mfh,90.99
2023-01-07T12:43:00,mfh,90.90
2023-01-07T12:44:00,mfh,90.94
2023-01-07T12:45:00,mfh,91.05
2023-01-07T12:46:00,mfh,90.93
2023-01-07T12:47:00,mfh,90.94
2023-01-07T12:48:00,mfh,90.94
2023-01-07T12:49:00,mfh,90.95
2023-01-07T12:50:00,mfh,90.94
2023-01-07T12:51:00,mfh,90.95
2023-01-07T12:52:00,mfh,90.99
2023-01-07T12:53:00,mfh,90.96
2023-01-07T12:54:00,mfh,90.90
2023-01-07T12:55:00,mfh,91.02
2023-01-07T12:56:00,mfh,91.00
2023-01-07T12:57:00,mfh,91.07
2023-01-07T12:58:00,mfh,90.92
2023-01-07T12:59:00,mfh,90.94
2023-01-07T13:00:00,mfh,91.03
2023-01-07T13:01:00,mfh,91.03
2023-01-07T13:02:00,mfh,90.96
2023-01-07T13:03:00,mfh,90.96
2023-01-07T13:04:00,mfh,91.00
2023-01-07T13:05:00,mfh,90.98
2023-01-07T13:06:00,mfh,91.07
2023-01-07T13:07:00,mfh,91.01
2023-01-07T13:08:00,mfh,91.00
2023-01-07T13:09:00,mfh,90.96
2023-01-07T13:10:00,mfh,90.95
2023-01-07T13:11:00,mfh,90.87
2023-01-07T13:12:00,mfh,91.04
2023-01-07T13:13:00,mfh,90.97
2023-01-07T13:14:00,mfh,91.02
2023-01-07T13:15:00,mfh,90.95
2023-01-07T13:16:00,mfh,91.12
2023-01-07T13:17:00,mfh,91.06
2023-01-07T13:18:00,mfh,91.02